Time,TemperatureF,DewpointF,PressureIn,WindDirection,WindDirectionDegrees,WindSpeedMPH,WindSpeedGustMPH,Humidity,HourlyPrecipIn,Conditions,Clouds,dailyrainin,SolarRadiationWatts/m^2,SoftwareType,DateUTC
2013-08-27 00:11:00,78.2,72.0,29.89,SE,146,0.0,6.0,82,0.00,,,0.00,0,weatherlink.com 1.10,2013-08-27 05:11:00,
2013-08-27 00:26:00,78.1,72.0,29.89,South,189,0.0,7.0,82,0.00,,,0.00,0,weatherlink.com 1.10,2013-08-27 05:26:00,
2013-08-27 00:50:00,78.0,72.0,29.90,WSW,246,2.0,9.0,82,0.00,,,0.00,0,weatherlink.com 1.10,2013-08-27 05:50:00,
2013-08-27 00:56:00,77.9,72.0,29.90,South,175,1.0,9.0,82,0.00,,,0.00,0,weatherlink.com 1.10,2013-08-27 05:56:00,
2013-08-27 01:11:00,78.0,72.0,29.90,South,186,4.0,6.0,82,0.00,,,0.00,0,weatherlink.com 1.10,2013-08-27 06:11:00,
2013-08-27 01:26:00,77.9,72.0,29.89,South,181,1.0,5.0,82,0.00,,,0.00,0,weatherlink.com 1.10,2013-08-27 06:26:00,
2013-08-27 01:41:00,77.9,72.0,29.89,WSW,249,2.0,7.0,82,0.00,,,0.00,0,weatherlink.com 1.10,2013-08-27 06:41:00,
2013-08-27 01:56:00,77.7,72.0,29.88,South,176,2.0,6.0,82,0.00,,,0.00,0,weatherlink.com 1.10,2013-08-27 06:56:00,
2013-08-27 02:11:00,77.7,72.0,29.87,South,186,0.0,6.0,82,0.00,,,0.00,0,weatherlink.com 1.10,2013-08-27 07:11:00,
2013-08-27 02:26:00,77.9,72.0,29.87,South,171,0.0,7.0,82,0.00,,,0.00,0,weatherlink.com 1.10,2013-08-27 07:26:00,
2013-08-27 02:41:00,77.9,72.0,29.87,South,182,1.0,7.0,82,0.00,,,0.00,0,weatherlink.com 1.10,2013-08-27 07:41:00,
2013-08-27 02:56:00,77.9,72.0,29.86,South,173,2.0,8.0,82,0.00,,,0.00,0,weatherlink.com 1.10,2013-08-27 07:56:00,
2013-08-27 03:11:00,77.8,72.0,29.86,SSE,166,0.0,6.0,82,0.00,,,0.00,0,weatherlink.com 1.10,2013-08-27 08:11:00,
2013-08-27 03:26:00,77.7,72.0,29.86,South,190,1.0,6.0,83,0.00,,,0.00,0,weatherlink.com 1.10,2013-08-27 08:26:00,
2013-08-27 03:41:00,77.8,72.0,29.86,South,171,0.0,7.0,82,0.00,,,0.00,0,weatherlink.com 1.10,2013-08-27 08:41:00,
2013-08-27 03:56:00,77.7,72.0,29.86,South,184,0.0,5.0,83,0.00,,,0.00,0,weatherlink.com 1.10,2013-08-27 08:56:00,
2013-08-27 04:11:00,77.7,72.0,29.86,SSW,194,1.0,6.0,82,0.00,,,0.00,0,weatherlink.com 1.10,2013-08-27 09:11:00,
2013-08-27 04:26:00,77.9,72.0,29.86,SE,145,1.0,4.0,82,0.00,,,0.00,0,weatherlink.com 1.10,2013-08-27 09:26:00,
2013-08-27 04:41:00,78.0,72.0,29.86,South,187,0.0,5.0,81,0.00,,,0.00,0,weatherlink.com 1.10,2013-08-27 09:41:00,
2013-08-27 04:56:00,77.9,72.0,29.86,SSW,196,1.0,5.0,81,0.00,,,0.00,0,weatherlink.com 1.10,2013-08-27 09:56:00,
2013-08-27 05:11:00,77.6,71.0,29.86,South,178,0.0,4.0,81,0.00,,,0.00,0,weatherlink.com 1.10,2013-08-27 10:11:00,
2013-08-27 05:26:00,77.5,72.0,29.88,ENE,77,2.0,4.0,82,0.00,,,0.00,0,weatherlink.com 1.10,2013-08-27 10:26:00,
2013-08-27 05:41:00,74.9,69.0,29.89,East,98,1.0,4.0,83,0.00,,,0.00,0,weatherlink.com 1.10,2013-08-27 10:41:00,
2013-08-27 05:56:00,73.6,68.0,29.89,ENE,61,0.0,1.0,83,0.00,,,0.00,0,weatherlink.com 1.10,2013-08-27 10:56:00,
2013-08-27 06:11:00,72.0,67.0,29.89,ENE,57,0.0,1.0,84,0.00,,,0.00,0,weatherlink.com 1.10,2013-08-27 11:11:00,
2013-08-27 06:26:00,71.6,67.0,29.90,ENE,57,0.0,1.0,86,0.00,,,0.00,11,weatherlink.com 1.10,2013-08-27 11:26:00,
2013-08-27 06:41:00,72.0,68.0,29.90,ENE,59,0.0,0.0,87,0.00,,,0.00,19,weatherlink.com 1.10,2013-08-27 11:41:00,
2013-08-27 06:56:00,72.4,68.0,29.89,ENE,59,0.0,0.0,87,0.00,,,0.00,35,weatherlink.com 1.10,2013-08-27 11:56:00,
2013-08-27 07:11:00,73.3,69.0,29.89,ENE,59,0.0,2.0,87,0.00,,,0.00,56,weatherlink.com 1.10,2013-08-27 12:11:00,
2013-08-27 07:26:00,74.0,70.0,29.89,ENE,59,0.0,0.0,88,0.00,,,0.00,70,weatherlink.com 1.10,2013-08-27 12:26:00,
2013-08-27 07:42:00,74.8,71.0,29.89,ENE,59,0.0,1.0,87,0.00,,,0.00,86,weatherlink.com 1.10,2013-08-27 12:42:00,
2013-08-27 07:57:00,75.8,71.0,29.89,ENE,59,0.0,0.0,86,0.00,,,0.00,109,weatherlink.com 1.10,2013-08-27 12:57:00,
2013-08-27 08:12:00,76.6,72.0,29.88,ENE,59,0.0,0.0,85,0.00,,,0.00,120,weatherlink.com 1.10,2013-08-27 13:12:00,
2013-08-27 08:27:00,77.3,73.0,29.88,ENE,59,0.0,0.0,85,0.00,,,0.00,134,weatherlink.com 1.10,2013-08-27 13:27:00,
2013-08-27 08:42:00,78.4,73.0,29.88,South,189,2.0,4.0,82,0.00,,,0.00,156,weatherlink.com 1.10,2013-08-27 13:42:00,
2013-08-27 08:57:00,79.0,73.0,29.88,SSW,192,2.0,4.0,81,0.00,,,0.00,204,weatherlink.com 1.10,2013-08-27 13:57:00,
2013-08-27 09:12:00,79.6,73.0,29.88,SSW,205,0.0,2.0,80,0.00,,,0.00,236,weatherlink.com 1.10,2013-08-27 14:12:00,
2013-08-27 09:27:00,80.2,73.0,29.87,SSW,193,2.0,5.0,79,0.00,,,0.00,353,weatherlink.com 1.10,2013-08-27 14:27:00,
2013-08-27 09:42:00,81.1,73.0,29.86,WSW,251,1.0,7.0,76,0.00,,,0.00,387,weatherlink.com 1.10,2013-08-27 14:42:00,
2013-08-27 09:57:00,81.3,73.0,29.85,South,177,1.0,7.0,77,0.00,,,0.00,397,weatherlink.com 1.10,2013-08-27 14:57:00,
2013-08-27 10:12:00,83.0,74.0,29.85,NW,321,3.0,7.0,75,0.00,,,0.00,584,weatherlink.com 1.10,2013-08-27 15:12:00,
2013-08-27 10:27:00,83.9,74.0,29.85,SSW,198,3.0,11.0,72,0.00,,,0.00,613,weatherlink.com 1.10,2013-08-27 15:27:00,
2013-08-27 10:42:00,85.1,74.0,29.84,SW,224,1.0,7.0,70,0.00,,,0.00,615,weatherlink.com 1.10,2013-08-27 15:42:00,
2013-08-27 10:57:00,86.0,75.0,29.84,SSW,193,2.0,9.0,69,0.00,,,0.00,619,weatherlink.com 1.10,2013-08-27 15:57:00,
2013-08-27 11:12:00,86.4,75.0,29.84,NW,309,2.0,6.0,69,0.00,,,0.00,555,weatherlink.com 1.10,2013-08-27 16:12:00,
2013-08-27 11:27:00,87.7,75.0,29.83,South,177,2.0,6.0,67,0.00,,,0.00,577,weatherlink.com 1.10,2013-08-27 16:27:00,
2013-08-27 11:42:00,89.2,76.0,29.83,SSW,198,4.0,5.0,65,0.00,,,0.00,668,weatherlink.com 1.10,2013-08-27 16:42:00,
2013-08-27 11:57:00,89.8,76.0,29.82,SSW,194,2.0,7.0,64,0.00,,,0.00,680,weatherlink.com 1.10,2013-08-27 16:57:00,
2013-08-27 12:13:00,91.0,76.0,29.82,South,178,1.0,4.0,62,0.00,,,0.00,708,weatherlink.com 1.10,2013-08-27 17:13:00,
2013-08-27 12:28:00,91.0,75.0,29.82,South,186,0.0,10.0,59,0.00,,,0.00,717,weatherlink.com 1.10,2013-08-27 17:28:00,
2013-08-27 12:43:00,92.3,75.0,29.81,South,182,6.0,7.0,58,0.00,,,0.00,761,weatherlink.com 1.10,2013-08-27 17:43:00,
2013-08-27 12:58:00,91.8,74.0,29.80,SSW,199,4.0,10.0,57,0.00,,,0.00,670,weatherlink.com 1.10,2013-08-27 17:58:00,
2013-08-27 13:13:00,92.4,76.0,29.79,NW,325,2.0,10.0,59,0.00,,,0.00,603,weatherlink.com 1.10,2013-08-27 18:13:00,
2013-08-27 13:28:00,93.6,76.0,29.79,South,182,4.0,6.0,56,0.00,,,0.00,759,weatherlink.com 1.10,2013-08-27 18:28:00,
2013-08-27 13:43:00,94.5,75.0,29.78,SSW,198,2.0,9.0,53,0.00,,,0.00,747,weatherlink.com 1.10,2013-08-27 18:43:00,
2013-08-27 13:58:00,94.9,75.0,29.77,South,185,2.0,6.0,53,0.00,,,0.00,735,weatherlink.com 1.10,2013-08-27 18:58:00,
2013-08-27 14:13:00,94.6,73.0,29.77,SSW,192,2.0,14.0,50,0.00,,,0.00,717,weatherlink.com 1.10,2013-08-27 19:13:00,
2013-08-27 14:28:00,94.9,73.0,29.76,South,178,2.0,7.0,50,0.00,,,0.00,701,weatherlink.com 1.10,2013-08-27 19:28:00,
2013-08-27 14:43:00,94.7,74.0,29.75,South,190,3.0,10.0,51,0.00,,,0.00,677,weatherlink.com 1.10,2013-08-27 19:43:00,
2013-08-27 14:58:00,94.9,74.0,29.75,SSW,193,3.0,10.0,51,0.00,,,0.00,647,weatherlink.com 1.10,2013-08-27 19:58:00,
2013-08-27 15:13:00,94.5,74.0,29.75,SSE,166,5.0,14.0,51,0.00,,,0.00,617,weatherlink.com 1.10,2013-08-27 20:13:00,
2013-08-27 15:28:00,94.4,73.0,29.74,South,178,5.0,11.0,50,0.00,,,0.00,587,weatherlink.com 1.10,2013-08-27 20:28:00,
2013-08-27 15:43:00,94.0,74.0,29.74,South,184,6.0,10.0,52,0.00,,,0.00,554,weatherlink.com 1.10,2013-08-27 20:43:00,
2013-08-27 15:58:00,93.4,74.0,29.74,NNW,329,2.0,9.0,53,0.00,,,0.00,513,weatherlink.com 1.10,2013-08-27 20:58:00,
2013-08-27 16:13:00,92.8,74.0,29.74,South,190,1.0,11.0,54,0.00,,,0.00,70,weatherlink.com 1.10,2013-08-27 21:13:00,
2013-08-27 16:43:00,92.5,74.0,29.73,South,190,3.0,13.0,55,0.00,,,0.00,65,weatherlink.com 1.10,2013-08-27 21:43:00,
2013-08-27 16:58:00,92.2,74.0,29.73,South,178,5.0,17.0,55,0.00,,,0.00,63,weatherlink.com 1.10,2013-08-27 21:58:00,
2013-08-27 17:13:00,92.0,75.0,29.72,South,173,3.0,7.0,57,0.00,,,0.00,58,weatherlink.com 1.10,2013-08-27 22:13:00,
2013-08-27 17:28:00,91.7,74.0,29.72,South,181,4.0,14.0,56,0.00,,,0.00,56,weatherlink.com 1.10,2013-08-27 22:28:00,
2013-08-27 17:43:00,91.4,75.0,29.73,South,188,2.0,7.0,59,0.00,,,0.00,69,weatherlink.com 1.10,2013-08-27 22:43:00,
2013-08-27 17:58:00,91.2,75.0,29.73,NW,323,1.0,7.0,59,0.00,,,0.00,60,weatherlink.com 1.10,2013-08-27 22:58:00,
2013-08-27 18:14:00,91.0,75.0,29.74,South,182,5.0,7.0,59,0.00,,,0.00,62,weatherlink.com 1.10,2013-08-27 23:14:00,
2013-08-27 18:28:00,90.6,74.0,29.75,South,184,1.0,7.0,59,0.00,,,0.00,37,weatherlink.com 1.10,2013-08-27 23:28:00,
2013-08-27 18:43:00,90.3,74.0,29.74,South,178,3.0,8.0,58,0.00,,,0.00,30,weatherlink.com 1.10,2013-08-27 23:43:00,
2013-08-27 18:58:00,89.8,73.0,29.74,South,186,2.0,9.0,58,0.00,,,0.00,18,weatherlink.com 1.10,2013-08-27 23:58:00,
2013-08-27 19:13:00,89.2,73.0,29.74,SSW,203,1.0,6.0,60,0.00,,,0.00,11,weatherlink.com 1.10,2013-08-28 00:13:00,
2013-08-27 19:28:00,88.6,73.0,29.75,NNE,21,0.0,6.0,61,0.00,,,0.00,5,weatherlink.com 1.10,2013-08-28 00:28:00,
2013-08-27 19:43:00,88.1,74.0,29.75,South,187,1.0,4.0,63,0.00,,,0.00,0,weatherlink.com 1.10,2013-08-28 00:43:00,
2013-08-27 19:58:00,87.9,74.0,29.76,SSE,167,0.0,4.0,63,0.00,,,0.00,0,weatherlink.com 1.10,2013-08-28 00:58:00,
2013-08-27 20:13:00,87.9,74.0,29.76,SSE,148,0.0,5.0,64,0.00,,,0.00,0,weatherlink.com 1.10,2013-08-28 01:13:00,
2013-08-27 20:28:00,87.4,74.0,29.76,South,190,0.0,4.0,64,0.00,,,0.00,0,weatherlink.com 1.10,2013-08-28 01:28:00,
2013-08-27 20:43:00,86.7,74.0,29.76,SSW,196,0.0,4.0,66,0.00,,,0.00,0,weatherlink.com 1.10,2013-08-28 01:43:00,
2013-08-27 20:58:00,86.2,74.0,29.76,South,181,1.0,5.0,67,0.00,,,0.00,0,weatherlink.com 1.10,2013-08-28 01:58:00,
2013-08-27 21:13:00,86.0,74.0,29.77,NW,307,1.0,5.0,67,0.00,,,0.00,0,weatherlink.com 1.10,2013-08-28 02:13:00,
2013-08-27 21:28:00,85.7,74.0,29.77,South,171,0.0,4.0,68,0.00,,,0.00,0,weatherlink.com 1.10,2013-08-28 02:28:00,
2013-08-27 21:43:00,85.4,74.0,29.76,SSW,192,0.0,4.0,68,0.00,,,0.00,0,weatherlink.com 1.10,2013-08-28 02:43:00,
2013-08-27 21:58:00,85.1,74.0,29.75,SSW,203,0.0,5.0,69,0.00,,,0.00,0,weatherlink.com 1.10,2013-08-28 02:58:00,
2013-08-27 22:13:00,84.8,74.0,29.75,West,270,2.0,6.0,70,0.00,,,0.00,0,weatherlink.com 1.10,2013-08-28 03:13:00,
2013-08-27 22:28:00,84.3,74.0,29.75,SSW,196,2.0,7.0,71,0.00,,,0.00,0,weatherlink.com 1.10,2013-08-28 03:28:00,
2013-08-27 22:43:00,84.0,74.0,29.75,South,184,1.0,5.0,72,0.00,,,0.00,0,weatherlink.com 1.10,2013-08-28 03:43:00,
2013-08-27 22:58:00,83.6,74.0,29.75,WSW,238,0.0,3.0,73,0.00,,,0.00,0,weatherlink.com 1.10,2013-08-28 03:58:00,
2013-08-27 23:13:00,75.3,69.0,29.76,NE,42,1.0,4.0,80,0.00,,,0.00,0,weatherlink.com 1.10,2013-08-28 04:13:00,
2013-08-27 23:28:00,73.0,69.0,29.77,North,360,0.0,3.0,88,0.00,,,0.00,0,weatherlink.com 1.10,2013-08-28 04:28:00,
2013-08-27 23:43:00,72.4,69.0,29.77,NE,50,3.0,4.0,89,0.00,,,0.00,0,weatherlink.com 1.10,2013-08-28 04:43:00,
2013-08-27 23:58:00,72.6,70.0,29.77,NNE,30,1.0,4.0,90,0.00,,,0.00,0,weatherlink.com 1.10,2013-08-28 04:58:00,